Regional Weather Roundup
Issued by NWS

Home | Current Version | Previous Version | Text Only | Print | Product List | Glossary On
Versions: 1 2 3 4 5 6 7 8 9 10 11 12 13 14 15 16 17 18 19 20 21 22 23 24 25 26 27
000
ASUS44 KBMX 251110
RWRAL

ALABAMA REGIONAL WEATHER ROUNDUP
NATIONAL WEATHER SERVICE BIRMINGHAM AL
600 AM CDT TUE JUL 25 2017

NOTE: "FAIR" INDICATES FEW OR NO CLOUDS BELOW 12,000 FEET
WITH NO SIGNIFICANT WEATHER AND/OR OBSTRUCTIONS TO VISIBILITY.

THE REMARK "TC" DENOTES TEMPERATURE IN DEGREES CELSIUS.

ALZ001>011-014-016>018-020-251200-
NORTH ALABAMA

CITY           SKY/WX    TMP DP  RH WIND       PRES   REMARKS
MUSCLE SHOALS  CLEAR     70  67  90 CALM      30.09R
HUNTSVILLE     FOG       73  73 100 SE3       30.09R VSB 1/2
DECATUR        CLEAR     69  69 100 CALM      30.09R
HALEYVILLE     NOT AVBL
GADSDEN        MOCLDY    71  71 100 SW3       30.09R
$$

ALZ012-013-022-023-030>036-040>044-251200-
WEST CENTRAL ALABAMA

CITY           SKY/WX    TMP DP  RH WIND       PRES   REMARKS
TUSCALOOSA     MOCLDY    75  75 100 CALM      30.08R
DEMOPOLIS        N/A     74  74 100 CALM      30.08R
$$

ALZ015-024>026-033>036-041>044-251200-
CENTRAL ALABAMA

CITY           SKY/WX    TMP DP  RH WIND       PRES   REMARKS
BIRMINGHAM     CLOUDY    75  74  96 CALM      30.11R FOG
MONTGOMERY     CLOUDY    78  72  81 CALM      30.08R
SHELBY CO ARPT CLOUDY    76  75  97 CALM      30.09R
MAXWELL AFB    CLOUDY    77  75  93 W3        30.08R
GREENVILLE     CLOUDY    75  71  87 W6        30.09R
SELMA          DRIZZLE   75  73  94 W6        30.08R
PRATTVILLE     CLOUDY    76  75  96 W3        30.08R
BESSEMER       CLOUDY    74  74 100 CALM      30.11R FOG
TALLADEGA      CLOUDY    73  73  97 CALM      30.10R
PELL CITY      CLOUDY    73  73 100 CALM      30.09R
MARION         NOT AVBL
SYLACAUGA      CLOUDY    75  75 100 CALM      30.09R
$$

ALZ019-021-028-029-037-038-045>048-251200-
EAST CENTRAL ALABAMA

CITY           SKY/WX    TMP DP  RH WIND       PRES   REMARKS
ANNISTON       CLOUDY    74  72  93 SW3       30.09R
ALEXANDER CITY LGT RAIN  74  73  99 CALM      30.09S
AUBURN         CLOUDY    73  73 100 W5        30.11R
$$

ALZ051>064-251200-
SOUTHWEST ALABAMA

CITY           SKY/WX    TMP DP  RH WIND       PRES   REMARKS
MOBILE         CLOUDY    74  72  93 W3        30.11R
BROOKLEY FIELD CLOUDY    76  75  97 CALM      30.10R
EVERGREEN      CLOUDY    74  72  93 S5        30.11R
$$

ALZ049-050-065>069-251200-
SOUTHEAST ALABAMA

CITY           SKY/WX    TMP DP  RH WIND       PRES   REMARKS
DOTHAN         MOCLDY    75  74  96 W6        30.13R
OZARK          PTCLDY    73  71  96 SW5       30.10R
TROY           CLOUDY    73  73 100 CALM      30.10R
EUFAULA        MOCLDY    75  73  93 CALM      30.08R
$$




USA.gov is the U.S. government's official web portal to all federal, state and local government web resources and services.